GW1622 Weather Reports


Display with metric or nautical units.
time (UTC)temp
F
wind
direction
speed
MPH
gust
MPH
rain 1hr
in
rain 24hr
in
rain mn
in
humidity
%
barometer
mb
20260510051535 61 0 0.0 3.0 0.00 0.00 0.00 87 1014.2
20260510051016 61 0 0.0 2.0 0.00 0.00 0.00 87 1014.2
20260510050515 61 0 0.0 2.0 0.00 0.00 0.00 87 1014.2
20260510050035 61 146 0.0 3.0 0.00 0.00 0.00 87 1014.2
20260510045516 61 0 0.0 3.0 0.00 0.00 0.00 87 1014.1
20260510045014 60 153 0.0 2.0 0.00 0.00 0.00 87 1014.2
20260510044532 60 0 0.0 2.0 0.00 0.00 0.00 87 1014.2
20260510044020 60 153 0.0 2.0 0.00 0.00 0.00 87 1014.1
20260510043513 60 103 0.0 2.0 0.00 0.00 0.00 87 1014.0
20260510043030 60 0 0.0 1.0 0.00 0.00 0.00 87 1014.1
20260510042517 60 0 0.0 0.0 0.00 0.00 0.00 87 1014.1
20260510042014 60 0 0.0 0.0 0.00 0.00 0.00 87 1014.0
20260510041541 60 0 0.0 1.0 0.00 0.00 0.00 87 1014.0
20260510041015 60 0 0.0 1.0 0.00 0.00 0.00 87 1013.8
20260510040516 60 0 0.0 1.0 0.00 0.00 0.00 87 1013.8
20260510040036 60 0 0.0 1.0 0.00 0.00 0.00 87 1013.9
20260510035513 60 0 0.0 2.0 0.00 0.00 0.00 86 1013.8
20260510035015 61 0 0.0 2.0 0.00 0.00 0.00 86 1013.6
20260510034534 61 0 0.0 2.0 0.00 0.00 0.00 86 1013.7
20260510034014 61 0 0.0 1.0 0.00 0.00 0.00 86 1013.6
20260510033513 61 0 0.0 2.0 0.00 0.00 0.00 86 1013.6
20260510033036 61 0 0.0 2.0 0.00 0.00 0.00 86 1013.5
20260510032515 61 0 0.0 2.0 0.00 0.00 0.00 86 1013.4
20260510032016 61 0 0.0 2.0 0.00 0.00 0.00 86 1013.4
20260510031535 61 0 0.0 2.0 0.00 0.00 0.00 86 1013.3
20260510031018 61 0 0.0 2.0 0.00 0.00 0.00 86 1013.2
20260510030518 61 0 0.0 2.0 0.00 0.00 0.00 86 1013.1
20260510030038 61 0 0.0 2.0 0.00 0.00 0.00 85 1013.1
20260510025518 61 42 0.0 2.0 0.00 0.00 0.00 85 1013.0
20260510025019 61 42 0.0 2.0 0.00 0.00 0.00 85 1013.0
20260510024537 61 0 0.0 1.0 0.00 0.00 0.00 85 1013.0
20260510024017 62 0 0.0 2.0 0.00 0.00 0.00 85 1013.0
20260510023517 62 0 0.0 2.0 0.00 0.00 0.00 85 1013.0
20260510023033 62 0 0.0 2.0 0.00 0.00 0.00 85 1012.8
20260510022523 62 0 0.0 3.0 0.00 0.00 0.00 85 1012.9
20260510022019 62 92 0.0 3.0 0.00 0.00 0.00 85 1012.9
20260510021540 62 157 1.0 3.0 0.00 0.00 0.00 84 1012.9
20260510021018 62 68 0.0 3.0 0.00 0.00 0.00 85 1012.9
20260510020518 62 0 1.0 3.0 0.00 0.00 0.00 84 1012.9
20260510020038 62 0 0.0 3.0 0.00 0.00 0.00 84 1012.8
20260510015519 62 0 0.0 3.0 0.00 0.00 0.00 84 1012.9
20260510015015 62 74 0.0 3.0 0.00 0.00 0.00 84 1012.8
20260510014536 62 101 0.0 4.0 0.00 0.00 0.00 83 1012.8
20260510014016 62 0 1.0 4.0 0.00 0.00 0.00 83 1012.8
20260510013519 63 86 0.0 2.0 0.00 0.00 0.00 83 1012.8
20260510013040 63 0 0.0 3.0 0.00 0.00 0.00 83 1012.8
20260510012516 63 0 0.0 3.0 0.00 0.00 0.00 83 1012.8
20260510012018 63 93 1.0 4.0 0.00 0.00 0.00 83 1012.9
20260510011535 63 67 1.0 4.0 0.00 0.00 0.00 81 1012.9
20260510011017 64 140 0.0 3.0 0.00 0.00 0.00 81 1013.1
20260510010515 64 0 1.0 4.0 0.00 0.00 0.00 81 1012.9
20260510010034 64 0 0.0 4.0 0.00 0.00 0.00 82 1013.0
20260510005517 64 54 1.0 4.0 0.00 0.00 0.00 82 1012.9
20260510005015 64 125 1.0 4.0 0.00 0.00 0.00 80 1012.9
20260510004534 64 73 0.0 3.0 0.00 0.00 0.00 81 1012.9
20260510004019 64 104 0.0 3.0 0.00 0.00 0.00 81 1013.0
20260510003516 64 93 1.0 3.0 0.00 0.00 0.00 80 1013.0
20260510003049 65 78 1.0 5.0 0.00 0.00 0.00 79 1013.0
20260510002519 65 63 1.0 6.0 0.00 0.00 0.00 80 1013.0
20260510002016 65 111 1.0 6.0 0.00 0.00 0.00 80 1012.9
20260510001543 65 103 0.0 5.0 0.00 0.00 0.00 80 1012.7
20260510001016 65 76 1.0 5.0 0.00 0.00 0.00 79 1012.7
20260510000516 65 166 2.0 5.0 0.00 0.00 0.00 78 1012.7
20260510000043 65 126 1.0 5.0 0.00 0.00 0.00 79 1012.6
20260509235515 65 41 1.0 7.0 0.00 0.00 0.00 80 1012.7
20260509235016 65 161 2.0 7.0 0.00 0.00 0.00 79 1012.5
20260509234539 66 123 2.0 5.0 0.00 0.00 0.00 78 1012.7
20260509234013 66 76 2.0 6.0 0.00 0.00 0.00 77 1012.5
20260509233516 66 61 1.0 6.0 0.00 0.00 0.00 77 1012.6
20260509233032 67 193 1.0 4.0 0.00 0.00 0.00 76 1012.6
20260509232513 67 140 1.0 5.0 0.00 0.00 0.00 76 1012.5
20260509232016 66 53 1.0 6.0 0.00 0.00 0.00 78 1012.6
20260509231531 67 76 2.0 6.0 0.00 0.00 0.00 76 1012.5
20260509231013 67 164 2.0 6.0 0.00 0.00 0.00 75 1012.4
20260509230515 66 0 2.0 6.0 0.00 0.00 0.00 75 1012.4
20260509230034 68 105 1.0 7.0 0.00 0.00 0.00 74 1012.5
20260509225516 67 314 1.0 7.0 0.00 0.00 0.00 77 1012.7
20260509225016 66 167 2.0 7.0 0.00 0.00 0.00 75 1012.6
20260509224533 67 142 1.0 7.0 0.00 0.00 0.00 75 1012.7
20260509224015 66 96 1.0 7.0 0.00 0.00 0.00 76 1012.9
20260509223516 66 95 1.0 8.0 0.00 0.00 0.00 77 1013.0
20260509223030 66 267 2.0 8.0 0.00 0.00 0.00 76 1013.1
20260509222514 68 61 1.0 7.0 0.00 0.00 0.00 75 1013.2
20260509222017 67 69 2.0 7.0 0.00 0.00 0.00 73 1013.2
20260509221530 67 177 1.0 8.0 0.00 0.00 0.00 76 1013.2
20260509221015 67 76 2.0 8.0 0.00 0.00 0.00 76 1013.3
20260509220516 66 338 3.0 8.0 0.00 0.00 0.00 75 1013.4
20260509220034 66 92 3.0 8.0 0.00 0.00 0.00 75 1013.3
20260509215516 68 136 1.0 5.0 0.00 0.00 0.00 73 1013.3
20260509215014 69 45 1.0 7.0 0.00 0.00 0.00 72 1013.3
20260509214538 67 108 2.0 7.0 0.00 0.00 0.00 74 1013.2
20260509214015 67 0 2.0 7.0 0.00 0.00 0.00 76 1013.3
20260509213515 66 118 3.0 9.0 0.00 0.00 0.00 74 1013.5
20260509213040 69 70 2.0 9.0 0.00 0.00 0.00 72 1013.6
20260509212513 69 69 3.0 9.0 0.00 0.00 0.00 71 1013.6
20260509212018 68 51 2.0 6.0 0.00 0.00 0.00 73 1013.7
20260509211532 69 36 2.0 9.0 0.00 0.00 0.00 73 1013.7
20260509211013 67 39 2.0 9.0 0.00 0.00 0.00 75 1013.8
20260509210512 68 61 1.0 6.0 0.00 0.00 0.00 73 1013.8
20260509210034 68 40 2.0 5.0 0.00 0.00 0.00 73 1013.7
20260509205516 68 99 1.0 6.0 0.00 0.00 0.00 73 1013.8
20260509205014 69 43 2.0 6.0 0.00 0.00 0.00 71 1013.6
20260509204541 69 77 1.0 6.0 0.00 0.00 0.00 71 1013.8
20260509204016 69 113 1.0 6.0 0.00 0.00 0.00 70 1013.8
20260509203516 71 103 1.0 6.0 0.00 0.00 0.00 70 1013.9
20260509203036 70 96 2.0 8.0 0.00 0.00 0.00 70 1013.9
20260509202513 71 174 2.0 10.0 0.00 0.00 0.00 70 1013.9
20260509202014 70 13 1.0 10.0 0.00 0.00 0.00 70 1014.0
20260509201531 69 69 2.0 9.0 0.00 0.00 0.00 70 1014.0
20260509201013 68 57 2.0 10.0 0.00 0.00 0.00 74 1014.0
20260509200518 69 89 2.0 10.0 0.00 0.00 0.00 73 1014.1
20260509200039 68 52 2.0 10.0 0.00 0.00 0.00 74 1014.0
20260509195517 69 84 2.0 6.0 0.00 0.00 0.00 72 1013.9
20260509195019 69 90 2.0 5.0 0.00 0.00 0.00 73 1013.9
20260509194540 68 141 2.0 6.0 0.00 0.00 0.00 74 1013.9
20260509194014 68 103 2.0 6.0 0.00 0.00 0.00 74 1013.8
20260509193514 68 119 2.0 7.0 0.00 0.00 0.00 74 1013.9
20260509193041 68 120 2.0 7.0 0.00 0.00 0.00 73 1013.9
20260509192516 68 46 2.0 5.0 0.00 0.00 0.00 74 1013.8
20260509192018 68 94 2.0 6.0 0.00 0.00 0.00 74 1013.9
20260509191532 68 55 2.0 7.0 0.00 0.00 0.00 74 1013.9
20260509191015 67 87 2.0 7.0 0.00 0.00 0.00 76 1014.0
20260509190513 68 66 3.0 10.0 0.00 0.00 0.00 75 1013.9
20260509190030 68 65 2.0 10.0 0.00 0.00 0.00 75 1013.9
20260509185515 67 95 3.0 10.0 0.00 0.00 0.00 76 1013.9
20260509185018 68 86 2.0 8.0 0.00 0.00 0.00 76 1013.9
20260509184536 67 67 2.0 8.0 0.00 0.00 0.00 77 1013.8
20260509184013 67 87 3.0 8.0 0.00 0.00 0.00 76 1013.9
20260509183513 67 100 3.0 8.0 0.00 0.00 0.00 76 1014.0
20260509183035 66 58 2.0 8.0 0.00 0.00 0.00 78 1014.1
20260509182513 67 148 2.0 9.0 0.00 0.00 0.00 77 1014.2
20260509182014 66 46 2.0 9.0 0.00 0.00 0.00 80 1014.3
20260509181535 67 71 1.0 7.0 0.00 0.00 0.00 78 1014.2
20260509181015 67 107 1.0 5.0 0.00 0.00 0.00 77 1014.3
20260509180515 68 328 1.0 7.0 0.00 0.00 0.00 78 1014.3
20260509180032 67 0 1.0 7.0 0.00 0.00 0.00 78 1014.3
20260509175515 66 132 3.0 7.0 0.00 0.00 0.00 77 1014.4
20260509175016 67 78 2.0 6.0 0.00 0.00 0.00 81 1014.3
20260509174532 68 63 1.0 4.0 0.00 0.00 0.00 77 1014.3
20260509174013 67 19 1.0 8.0 0.00 0.00 0.00 82 1014.4
20260509173513 65 175 2.0 8.0 0.00 0.00 0.00 81 1014.5
20260509173030 65 51 2.0 5.0 0.00 0.00 0.00 82 1014.5
20260509172514 65 323 1.0 7.0 0.00 0.00 0.00 82 1014.5
20260509172016 65 109 0.0 7.0 0.00 0.00 0.00 82 1014.4
20260509171536 65 171 2.0 7.0 0.00 0.00 0.00 81 1014.3
20260509171013 65 33 1.0 5.0 0.00 0.00 0.00 83 1014.3
20260509170514 64 74 1.0 4.0 0.00 0.00 0.00 83 1014.3
20260509170035 64 175 1.0 4.0 0.00 0.00 0.00 83 1014.4
20260509165513 63 61 1.0 5.0 0.00 0.00 0.00 84 1014.4
20260509165014 63 46 1.0 5.0 0.00 0.00 0.00 85 1014.4
20260509164534 62 83 1.0 4.0 0.00 0.00 0.00 85 1014.5
20260509164014 62 0 1.0 4.0 0.00 0.00 0.00 86 1014.5
20260509163516 62 97 1.0 4.0 0.00 0.00 0.00 86 1014.6
20260509163031 62 140 1.0 4.0 0.00 0.00 0.00 86 1014.6
20260509162517 63 153 0.0 2.0 0.00 0.00 0.00 86 1014.6
20260509162016 62 0 0.0 3.0 0.00 0.00 0.00 87 1014.6
20260509161532 62 238 1.0 3.0 0.00 0.00 0.00 87 1014.6
20260509161015 62 132 1.0 2.0 0.00 0.00 0.00 87 1014.6
20260509160515 61 0 1.0 3.0 0.00 0.00 0.00 87 1014.5
20260509160030 62 0 0.0 3.0 0.00 0.00 0.00 88 1014.6
20260509155514 61 101 0.0 3.0 0.00 0.00 0.00 88 1014.6
20260509155015 61 84 1.0 3.0 0.00 0.00 0.00 88 1014.6
20260509154534 61 36 0.0 4.0 0.00 0.00 0.00 89 1014.5
20260509154015 61 160 1.0 5.0 0.00 0.00 0.00 89 1014.6
20260509153518 61 0 1.0 5.0 0.00 0.00 0.00 89 1014.5
20260509153033 61 115 0.0 2.0 0.00 0.00 0.00 89 1014.4
20260509152515 61 0 0.0 2.0 0.00 0.00 0.00 89 1014.6
20260509152015 61 126 0.0 3.0 0.00 0.00 0.00 90 1014.5
20260509151533 61 158 0.0 3.0 0.00 0.00 0.00 90 1014.5
20260509151015 61 157 1.0 3.0 0.00 0.00 0.00 90 1014.5
20260509150514 61 155 0.0 3.0 0.00 0.00 0.00 90 1014.5
20260509150031 61 0 0.0 2.0 0.00 0.00 0.00 91 1014.5
20260509145514 60 0 0.0 2.0 0.00 0.00 0.00 91 1014.6
20260509145015 60 0 0.0 3.0 0.00 0.00 0.00 91 1014.5
20260509144530 60 128 1.0 3.0 0.00 0.00 0.00 91 1014.4
20260509144012 60 136 0.0 2.0 0.00 0.00 0.00 91 1014.4
20260509143513 60 0 0.0 2.0 0.00 0.00 0.00 91 1014.4
20260509143038 60 133 0.0 2.0 0.00 0.00 0.00 91 1014.5
20260509142514 60 0 0.0 2.0 0.00 0.00 0.00 91 1014.4
20260509142014 60 0 0.0 1.0 0.00 0.00 0.00 92 1014.5
20260509141532 60 0 0.0 0.0 0.00 0.00 0.00 92 1014.4
20260509141015 60 0 0.0 0.0 0.00 0.00 0.00 92 1014.4
20260509140516 60 0 0.0 1.0 0.00 0.00 0.00 92 1014.2
20260509140049 60 0 0.0 1.0 0.00 0.00 0.00 92 1014.2
20260509135514 60 0 0.0 1.0 0.00 0.00 0.00 92 1014.3
20260509135017 60 101 0.0 1.0 0.00 0.00 0.00 92 1014.3
20260509134534 60 0 0.0 1.0 0.00 0.00 0.00 92 1014.4
20260509134016 60 0 0.0 3.0 0.00 0.00 0.00 92 1014.2
20260509133515 60 101 0.0 3.0 0.00 0.00 0.00 92 1014.3
20260509133034 60 0 0.0 2.0 0.00 0.00 0.00 91 1014.2
20260509132514 60 130 0.0 2.0 0.00 0.00 0.00 92 1014.1
20260509132015 60 0 0.0 2.0 0.00 0.00 0.00 91 1014.1
20260509131540 60 0 0.0 2.0 0.00 0.00 0.00 91 1014.1
20260509131014 60 130 0.0 2.0 0.00 0.00 0.00 92 1014.0
20260509130515 60 130 0.0 2.0 0.00 0.00 0.00 92 1014.0
20260509130034 60 0 0.0 1.0 0.00 0.00 0.00 91 1014.1
20260509125515 60 0 0.0 2.0 0.00 0.00 0.00 91 1014.1
20260509125015 60 0 0.0 2.0 0.00 0.00 0.00 91 1014.0
20260509124536 60 0 0.0 2.0 0.00 0.00 0.00 91 1013.9
20260509124015 60 0 0.0 2.0 0.00 0.00 0.00 91 1013.9
20260509123513 60 0 0.0 2.0 0.00 0.00 0.00 91 1013.9
20260509123032 60 0 0.0 2.0 0.00 0.00 0.00 91 1013.9
20260509122512 60 0 0.0 2.0 0.00 0.00 0.00 91 1013.9
20260509122013 60 0 0.0 2.0 0.00 0.00 0.00 91 1013.9
20260509121544 60 0 0.0 1.0 0.00 0.00 0.00 91 1013.9
20260509121019 60 0 0.0 0.0 0.00 0.00 0.00 91 1013.9
20260509120515 60 0 0.0 0.0 0.00 0.00 0.00 91 1013.8
20260509120036 60 0 0.0 2.0 0.00 0.00 0.00 91 1013.9
20260509115514 60 0 0.0 2.0 0.00 0.00 0.00 91 1013.9
20260509115014 60 0 1.0 2.0 0.00 0.00 0.00 91 1013.8
20260509114534 60 0 0.0 1.0 0.00 0.00 0.00 91 1013.8
20260509114013 60 0 0.0 2.0 0.00 0.00 0.00 91 1013.9
20260509113514 60 0 0.0 2.0 0.00 0.00 0.00 90 1013.8
20260509113030 61 0 0.0 2.0 0.00 0.00 0.00 90 1013.9
20260509112517 61 0 0.0 0.0 0.00 0.00 0.00 90 1013.9
20260509112016 61 0 0.0 1.0 0.00 0.00 0.00 90 1013.9
20260509111534 61 0 0.0 1.0 0.00 0.00 0.00 90 1013.8
20260509111016 61 173 0.0 1.0 0.00 0.00 0.00 90 1013.9
20260509110517 61 0 0.0 0.0 0.00 0.00 0.00 90 1013.9
20260509110033 61 0 0.0 0.0 0.00 0.00 0.00 90 1013.9
20260509105515 61 0 0.0 0.0 0.00 0.00 0.00 90 1013.9
20260509105015 61 0 0.0 0.0 0.00 0.00 0.00 90 1014.0
20260509104532 61 0 0.0 0.0 0.00 0.00 0.00 90 1014.0
20260509104015 61 0 0.0 1.0 0.00 0.00 0.00 90 1014.0
20260509103516 61 0 0.0 1.0 0.00 0.00 0.00 90 1014.0
20260509103036 61 0 0.0 0.0 0.00 0.00 0.00 90 1014.0
20260509102515 61 0 0.0 0.0 0.00 0.00 0.00 90 1014.1
20260509102015 61 0 0.0 0.0 0.00 0.00 0.00 90 1014.1
20260509101533 61 0 0.0 0.0 0.00 0.00 0.00 90 1014.1
20260509101016 61 0 0.0 0.0 0.00 0.00 0.00 90 1014.0
20260509100515 61 0 0.0 0.0 0.00 0.00 0.00 90 1014.0
20260509100033 61 0 0.0 0.0 0.00 0.00 0.00 90 1014.2
20260509095516 61 0 0.0 2.0 0.00 0.00 0.00 90 1014.2
20260509095015 61 0 0.0 2.0 0.00 0.00 0.00 90 1014.3
20260509094532 61 0 0.0 2.0 0.00 0.00 0.00 90 1014.3
20260509094016 61 142 1.0 3.0 0.00 0.00 0.00 90 1014.4
20260509093516 61 0 1.0 3.0 0.00 0.00 0.00 90 1014.3
20260509093035 61 0 0.0 3.0 0.00 0.00 0.00 90 1014.3
20260509092516 61 123 0.0 3.0 0.00 0.00 0.00 90 1014.3
20260509092015 61 0 0.0 3.0 0.00 0.00 0.00 90 1014.3
20260509091537 61 0 0.0 3.0 0.00 0.00 0.00 90 1014.4
20260509091016 61 0 0.0 3.0 0.00 0.00 0.00 90 1014.3
20260509090515 61 120 0.0 2.0 0.00 0.00 0.00 90 1014.4
20260509090036 61 120 0.0 2.0 0.00 0.00 0.00 90 1014.5
20260509085514 61 0 0.0 2.0 0.00 0.00 0.00 90 1014.7
20260509085014 61 120 0.0 3.0 0.00 0.00 0.00 90 1014.6
20260509084538 61 120 1.0 3.0 0.00 0.00 0.00 90 1014.7
20260509084018 61 0 0.0 2.0 0.00 0.00 0.00 90 1014.7
20260509083516 61 113 0.0 3.0 0.00 0.00 0.00 90 1014.8
20260509083045 61 0 0.0 3.0 0.00 0.00 0.00 90 1014.7
20260509082515 61 137 0.0 3.0 0.00 0.00 0.00 90 1014.7
20260509082015 61 0 0.0 2.0 0.00 0.00 0.00 90 1014.8
20260509081539 61 0 0.0 2.0 0.00 0.00 0.00 90 1014.9
20260509081015 61 34 0.0 1.0 0.00 0.00 0.00 90 1015.0
20260509080516 61 0 0.0 0.0 0.00 0.00 0.00 90 1014.9
20260509080034 61 0 0.0 0.0 0.00 0.00 0.00 90 1014.9
20260509075521 61 0 0.0 1.0 0.00 0.00 0.00 90 1015.0
20260509075021 61 0 0.0 2.0 0.00 0.00 0.00 90 1014.9
20260509074536 61 0 0.0 2.0 0.00 0.00 0.00 90 1015.0
20260509074016 61 0 0.0 1.0 0.00 0.00 0.00 90 1015.0
20260509073515 61 0 0.0 1.0 0.00 0.00 0.00 90 1015.0
20260509073037 61 0 0.0 1.0 0.00 0.00 0.00 90 1015.0
20260509072517 61 0 0.0 2.0 0.00 0.00 0.00 90 1015.1
20260509072015 61 0 0.0 2.0 0.00 0.00 0.00 90 1015.1
20260509071534 61 0 0.0 2.0 0.00 0.00 0.00 90 1015.2
20260509071018 61 0 0.0 2.0 0.00 0.00 0.00 90 1015.2
20260509070517 61 0 0.0 2.0 0.00 0.00 0.00 90 1015.2
20260509070036 61 0 0.0 2.0 0.00 0.00 0.00 90 1015.2
20260509065518 61 0 0.0 1.0 0.00 0.00 0.00 90 1015.2
20260509065019 61 0 0.0 1.0 0.00 0.00 0.00 89 1015.4
20260509064535 61 127 0.0 2.0 0.00 0.00 0.00 89 1015.4
20260509064019 61 127 0.0 2.0 0.00 0.00 0.00 90 1015.4
20260509063522 61 0 0.0 2.0 0.00 0.00 0.00 89 1015.4
20260509063034 61 0 0.0 1.0 0.00 0.00 0.00 89 1015.3
20260509062521 61 0 0.0 1.0 0.00 0.00 0.00 89 1015.4
20260509062023 61 0 0.0 3.0 0.00 0.00 0.00 89 1015.3
20260509061539 61 0 0.0 4.0 0.00 0.00 0.00 89 1015.3
20260509061016 61 157 2.0 4.0 0.00 0.00 0.00 89 1015.2
20260509060515 61 0 0.0 2.0 0.00 0.00 0.00 89 1015.3
20260509060038 61 0 0.0 1.0 0.00 0.00 0.00 89 1015.4
20260509055516 61 0 0.0 1.0 0.00 0.00 0.00 88 1015.5
20260509055016 61 0 0.0 1.0 0.00 0.00 0.00 88 1015.4
20260509054538 61 0 0.0 1.0 0.00 0.00 0.00 89 1015.4
20260509054014 61 0 0.0 1.0 0.00 0.00 0.00 89 1015.5
20260509053516 61 0 0.0 1.0 0.00 0.00 0.00 89 1015.5
20260509053053 61 0 0.0 1.0 0.00 0.00 0.00 88 1015.5
20260509052516 61 0 0.0 2.0 0.00 0.00 0.00 89 1015.6
20260509052016 61 0 0.0 2.0 0.00 0.00 0.00 89 1015.6